sat.trackr.live / text

‹ back to catalog

STARLINK-33944

NORAD 64209 · 2025-117G

PAYLOAD ACTIVE UNKNOWN

§ Identity

Operator
Country
US
Launch date
2025-05-31
Launch site
AFWTR
Launch vehicle
Mass (kg)
RCS (m²)

Purposes: comms

External: N2YO · Heavens-Above · Gunter

§ Orbital elements

Epoch: 2026-05-25T00:20:20.075136Z

Period
94.11 min
Inclination
53.1574°
Eccentricity
0.0000918
Mean motion
15.30203996 rev/d
Perigee alt
474.6 km
Apogee alt
475.8 km
Semi-major
6,853.3 km
B*
4.2674e-4
RAAN
44.9273°
Arg perigee
71.3822°
Mean anomaly
288.7279°
Rev number
5,624

§ Raw data

STARLINK-339441 64209U 25117G   26145.01412124  .00012302  00000+0  42674-3 0  99932 64209  53.1574  44.9273 0000918  71.3822 288.7279 15.30203996 56246

JSON: /api/v1/satellites/64209 · /tle

For live sub-satellite position, see the globe view (requires WebGL).

§ Visibility from observer

Set your observer location to see the next 7 days of passes ≥ 10°. The values pass through the URL so the page stays shareable.

No JS? Fill the form by hand. The geolocation button needs JavaScript.